Regional Weather Roundup
Issued by NWS

Home | Current Version | Previous Version | Graphics & Text | Print | Product List | Glossary On
Versions: 1 2 3 4 5 6 7 8 9 10 11 12 13 14 15 16 17 18 19 20 21 22 23 24 25 26 27 28 29 30 31 32 33 34 35 36 37 38 39 40 41 42 43 44 45 46 47 48 49 50
000
ASUS43 KFSD 211910
RWRSD

WEATHER ROUNDUP FOR SOUTH DAKOTA
NATIONAL WEATHER SERVICE SIOUX FALLS SD
200 PM CDT SAT OCT 21 2017

NOTE: "FAIR" INDICATES FEW OR NO CLOUDS BELOW 12,000 FEET WITH NO
SIGNIFICANT WEATHER AND/OR OBSTRUCTIONS TO VISIBILITY.


SDZ001>005-009-010-012>017-212000-
NORTHWEST AND NORTH CENTRAL SOUTH DAKOTA

CITY           SKY/WX    TMP DP  RH WIND       PRES   REMARKS
BUFFALO          N/A     54  26  34 NW36G48   29.70S
MOBRIDGE       CLOUDY    53  42  66 W10       29.67R
$$

SDZ012>016-024>037-041>051-057-063-072>074-212000-
SOUTHWEST AND SOUTH CENTRAL SOUTH DAKOTA

CITY           SKY/WX    TMP DP  RH WIND       PRES   REMARKS
RAPID CTY ARPT SUNNY     57  20  23 NW24G37   29.82S
PIERRE         CLOUDY    51  39  63 W14       29.75S
CUSTER         SUNNY     45  15  30 W24G37    29.87R
ELLSWORTH AFB  SUNNY     56  21  25 NW25G40   29.81F
PHILIP         CLOUDY    56  30  37 NW25G35   29.80F
PINE RIDGE     SUNNY     57  24  28 NW18G31   29.86S
SPEARFISH      FAIR      48  21  34 NW23G37   29.86S
WINNER         CLOUDY    51  41  68 W14G21    29.80S
$$

SDZ004>011-016>023-039-040-212000-
NORTHEAST SOUTH DAKOTA

CITY           SKY/WX    TMP DP  RH WIND       PRES   REMARKS
ABERDEEN       CLOUDY    52  40  63 W21G31    29.64R
WATERTOWN      CLOUDY    55  48  77 W16G23    29.61F
BROOKINGS      CLOUDY    54  44  69 NW23G32   29.62S
SISSETON         N/A     55  49  80 NW8       29.56R
$$

SDZ017-020-022-023-036>040-048>070-212000-
SOUTHEAST SOUTH DAKOTA

CITY           SKY/WX    TMP DP  RH WIND       PRES   REMARKS
SIOUX FALLS    CLOUDY    58  46  64 NW21G29   29.65R
HURON          CLOUDY    51  41  68 NW24G35   29.71R
CHAMBERLAIN    DRIZZLE   50  43  77 W14       29.77R
MITCHELL       CLOUDY    55  39  54 NW28G36   29.73R
YANKTON        CLOUDY    57  42  57 W24G32    29.72R
$$

ABBREVIATIONS USED IN REMARKS
   TC - TEMPERATURE IN CELSIUS
  WCI - WIND CHILL INDEX
   HX - HEAT INDEX
  VSB - VISIBILITY





USA.gov is the U.S. government's official web portal to all federal, state and local government web resources and services.